Bluffton, MN

1:59 AM CST on January 23, 2017 (GMT -0600)
Wadena Municipal

Weather History for KADC - January, 2014

Change the Weather History Date:

Sunday, January 5, 2014

  Actual Average Record
Temperature  
Mean Temperature -20 °F -  
Max Temperature -14 °F 13 °F 46 °F (2012)
Min Temperature -25 °F -3 °F -32 °F (1937)
Degree Days  
Heating Degree Days 84    
Moisture  
Dew Point -27 °F    
Average Humidity 72    
Maximum Humidity 84    
Minimum Humidity 63    
Precipitation  
Precipitation 0.00 in - - ()
Sea Level Pressure  
Sea Level Pressure 30.28 in    
Wind  
Wind Speed 8 mph (WNW)    
Max Wind Speed 17 mph    
Max Gust Speed 25 mph    
Visibility 9 miles    
Events      
Averages and records for this station are not official NWS values.
T = Trace of Precipitation, MM = Missing Value Source: NWS Daily Summary

Daily Weather History Graph

Daily Weather History Graph

Search for Another Location

Airport or City:

Trip Planner

Search our weather history database for the weather conditions in past years. The results will help you decide how hot, cold, wet, or windy it might be!

Date:

Astronomy

Jan. 05, 2014 Rise Set
Actual Time 8:04 AM CST 4:48 PM CST
Civil Twilight 7:29 AM CST 5:23 PM CST
Nautical Twilight 6:51 AM CST 6:01 PM CST
Astronomical Twilight 6:15 AM CST 6:37 PM CST
Moon 10:27 AM CST (1/5) 10:38 PM CST (1/5)
Length of Visible Light 9h 53m
Length of Day
8h 44m
Waxing Crescent, 25% of the Moon is Illuminated
Jan 5
Waxing Crescent
Jan 7
First Quarter
Jan 15
Full
Jan 23
Last Quarter
Jan 30
New

Hourly Weather History & Observations

Time (CST) Temp. Windchill Dew Point Humidity Pressure Visibility Wind Dir Wind Speed Gust Speed Precip Events Conditions
12:15 AM -16.6 °F -29.3 °F -22.0 °F 76% 30.22 in 10.0 mi West 4.6 mph - N/A   Clear
12:34 AM -16.6 °F -31.3 °F -20.2 °F 84% 30.22 in 10.0 mi West 5.8 mph - N/A   Clear
12:52 AM -16.6 °F -32.9 °F -20.2 °F 84% 30.22 in 10.0 mi West 6.9 mph - N/A   Clear
1:14 AM -16.6 °F -32.9 °F -20.2 °F 84% 30.21 in 10.0 mi WNW 6.9 mph - N/A   Clear
1:35 AM -16.6 °F -32.9 °F -20.2 °F 84% 30.21 in 10.0 mi WNW 6.9 mph - N/A   Clear
1:53 AM -16.6 °F -31.3 °F -20.2 °F 84% 30.22 in 10.0 mi WNW 5.8 mph - N/A   Clear
2:15 AM -16.6 °F -31.3 °F -20.2 °F 84% 30.23 in 10.0 mi West 5.8 mph - N/A   Clear
2:35 AM -18.4 °F -33.4 °F -22.0 °F 84% 30.23 in 10.0 mi West 5.8 mph - N/A   Clear
2:53 AM -18.4 °F -28.9 °F -23.8 °F 76% 30.24 in 10.0 mi West 3.5 mph - N/A   Clear
3:15 AM -18.4 °F -31.4 °F -23.8 °F 76% 30.23 in 10.0 mi West 4.6 mph - N/A   Clear
3:35 AM -18.4 °F -31.4 °F -23.8 °F 76% 30.23 in 10.0 mi WSW 4.6 mph - N/A   Clear
3:53 AM -20.2 °F -33.5 °F -25.6 °F 76% 30.23 in 10.0 mi WSW 4.6 mph - N/A   Clear
4:15 AM -20.2 °F -33.5 °F -25.6 °F 76% 30.24 in 10.0 mi WSW 4.6 mph - N/A   Clear
4:34 AM -18.4 °F -33.4 °F -23.8 °F 76% 30.24 in 10.0 mi West 5.8 mph - N/A   Clear
4:53 AM -20.2 °F -33.5 °F -25.6 °F 76% 30.24 in 10.0 mi West 4.6 mph - N/A   Clear
5:15 AM -20.2 °F -35.5 °F -25.6 °F 76% 30.24 in 10.0 mi West 5.8 mph - N/A   Clear
5:34 AM -20.2 °F -35.5 °F -25.6 °F 76% 30.25 in 10.0 mi WSW 5.8 mph - N/A   Clear
5:53 AM -20.2 °F -33.5 °F -25.6 °F 76% 30.25 in 10.0 mi West 4.6 mph - N/A   Clear
6:15 AM -20.2 °F -30.9 °F -25.6 °F 76% 30.25 in 10.0 mi West 3.5 mph - N/A   Clear
6:35 AM -20.2 °F -33.5 °F -25.6 °F 76% 30.26 in 10.0 mi WSW 4.6 mph - N/A   Clear
6:53 AM -20.2 °F -30.9 °F -25.6 °F 76% 30.26 in 10.0 mi West 3.5 mph - N/A   Clear
7:15 AM -20.2 °F -33.5 °F -25.6 °F 76% 30.27 in 10.0 mi West 4.6 mph - N/A   Clear
7:35 AM -20.2 °F -33.5 °F -25.6 °F 76% 30.27 in 10.0 mi West 4.6 mph - N/A   Clear
7:53 AM -20.2 °F -33.5 °F -25.6 °F 76% 30.27 in 10.0 mi WNW 4.6 mph - N/A   Clear
8:14 AM -20.2 °F -35.5 °F -25.6 °F 76% 30.28 in 10.0 mi West 5.8 mph - N/A   Clear
8:34 AM -20.2 °F -37.3 °F -25.6 °F 76% 30.29 in 10.0 mi West 6.9 mph - N/A   Clear
8:53 AM -20.2 °F -33.5 °F -25.6 °F 76% 30.30 in 10.0 mi WNW 4.6 mph - N/A   Clear
9:15 AM -20.2 °F -35.5 °F -25.6 °F 76% 30.30 in 10.0 mi West 5.8 mph - N/A   Clear
9:34 AM -18.4 °F -31.4 °F -23.8 °F 76% 30.31 in 10.0 mi WNW 4.6 mph - N/A   Clear
9:53 AM -18.4 °F -31.4 °F -23.8 °F 76% 30.31 in 10.0 mi WNW 4.6 mph - N/A   Clear
10:15 AM -18.4 °F -35.1 °F -23.8 °F 76% 30.32 in 10.0 mi WNW 6.9 mph - N/A   Clear
10:34 AM -18.4 °F -36.6 °F -23.8 °F 76% 30.32 in 10.0 mi NW 8.1 mph - N/A   Clear
10:53 AM -16.6 °F -34.4 °F -23.8 °F 70% 30.32 in 10.0 mi WNW 8.1 mph - N/A   Clear
11:15 AM -16.6 °F -31.3 °F -22.0 °F 76% 30.31 in 10.0 mi WNW 5.8 mph - N/A   Clear
11:35 AM -16.6 °F -32.9 °F -23.8 °F 70% 30.31 in 10.0 mi WNW 6.9 mph - N/A   Clear
11:53 AM -16.6 °F -35.7 °F -23.8 °F 70% 30.31 in 7.0 mi West 9.2 mph - N/A   Clear
12:14 PM -16.6 °F -39.8 °F -23.8 °F 70% 30.30 in 7.0 mi NW 13.8 mph - N/A   Clear
12:35 PM -14.8 °F -37.5 °F -23.8 °F 64% 30.30 in 10.0 mi NW 13.8 mph 17.3 mph N/A   Clear
12:53 PM -16.6 °F -40.6 °F -23.8 °F 70% 30.29 in 5.0 mi WNW 15.0 mph 20.7 mph N/A   Haze
1:14 PM -16.6 °F -42.1 °F -23.8 °F 70% 30.30 in 2.5 mi WNW 17.3 mph - N/A   Haze
1:35 PM -16.6 °F -40.6 °F -23.8 °F 70% 30.29 in 3.0 mi WNW 15.0 mph 19.6 mph N/A   Haze
1:53 PM -16.6 °F -40.6 °F -23.8 °F 70% 30.29 in 3.0 mi WNW 15.0 mph 20.7 mph N/A   Haze
2:14 PM -16.6 °F -41.4 °F -25.6 °F 64% 30.30 in 5.0 mi NW 16.1 mph 20.7 mph N/A   Haze
2:35 PM -18.4 °F -43.7 °F -25.6 °F 70% 30.31 in 5.0 mi NW 16.1 mph - N/A   Haze
2:53 PM -18.4 °F -42.1 °F -25.6 °F 70% 30.31 in 10.0 mi WNW 13.8 mph - N/A   Clear
3:14 PM -18.4 °F -42.9 °F -25.6 °F 70% 30.31 in 7.0 mi NW 15.0 mph 18.4 mph N/A   Clear
3:35 PM -18.4 °F -42.1 °F -27.4 °F 63% 30.32 in 10.0 mi WNW 13.8 mph 19.6 mph N/A   Clear
3:53 PM -18.4 °F -40.2 °F -27.4 °F 63% 30.32 in 7.0 mi WNW 11.5 mph 17.3 mph N/A   Clear
4:15 PM -20.2 °F -44.4 °F -29.2 °F 63% 30.32 in 10.0 mi WNW 13.8 mph - N/A   Clear
4:35 PM -20.2 °F -43.4 °F -29.2 °F 63% 30.33 in 10.0 mi WNW 12.7 mph - N/A   Clear
4:52 PM -22.0 °F -43.6 °F -29.2 °F 69% 30.33 in 10.0 mi WNW 10.4 mph - N/A   Clear
5:14 PM -22.0 °F -43.6 °F -29.2 °F 69% 30.34 in 10.0 mi WNW 10.4 mph 17.3 mph N/A   Clear
5:34 PM -23.8 °F -46.9 °F -31.0 °F 69% 30.33 in 10.0 mi NW 11.5 mph - N/A   Clear
5:53 PM -23.8 °F -48.0 °F -31.0 °F 69% 30.33 in 10.0 mi WNW 12.7 mph - N/A   Scattered Clouds
6:15 PM -23.8 °F -44.5 °F -29.2 °F 76% 30.33 in 4.0 mi WNW 9.2 mph - N/A   Haze
6:35 PM -23.8 °F -46.9 °F -29.2 °F 76% 30.32 in 5.0 mi NW 11.5 mph - N/A   Haze
6:52 PM -23.8 °F -43.2 °F -29.2 °F 76% 30.33 in 3.0 mi NW 8.1 mph - N/A   Haze
7:14 PM -23.8 °F -48.0 °F -32.8 °F 63% 30.32 in 10.0 mi NW 12.7 mph 20.7 mph N/A   Clear
7:35 PM -25.6 °F -51.2 °F -32.8 °F 69% 30.32 in 10.0 mi NW 13.8 mph 18.4 mph N/A   Clear
7:53 PM -23.8 °F -50.7 °F -32.8 °F 63% 30.31 in 7.0 mi WNW 16.1 mph - N/A   Mostly Cloudy
8:15 PM -25.6 °F -53.8 °F -32.8 °F 69% 30.31 in 7.0 mi WNW 17.3 mph 25.3 mph N/A   Scattered Clouds
8:34 PM -25.6 °F -51.2 °F -32.8 °F 69% 30.31 in 10.0 mi NW 13.8 mph 21.9 mph N/A   Clear
8:52 PM -25.6 °F -49.2 °F -32.8 °F 69% 30.31 in 10.0 mi NW 11.5 mph - N/A   Scattered Clouds
9:14 PM -25.6 °F -51.2 °F -32.8 °F 69% 30.30 in 10.0 mi NW 13.8 mph - N/A   Scattered Clouds
9:34 PM -25.6 °F -49.2 °F -34.6 °F 63% 30.30 in 10.0 mi NW 11.5 mph - N/A   Scattered Clouds
9:53 PM -25.6 °F -50.2 °F -34.6 °F 63% 30.29 in 10.0 mi NW 12.7 mph 17.3 mph N/A   Clear
10:15 PM -25.6 °F -49.2 °F -34.6 °F 63% 30.29 in 10.0 mi WNW 11.5 mph - N/A   Clear
10:35 PM -25.6 °F -46.8 °F -34.6 °F 63% 30.28 in 10.0 mi WNW 9.2 mph - N/A   Clear
10:53 PM -25.6 °F -51.2 °F -34.6 °F 63% 30.28 in 10.0 mi WNW 13.8 mph 18.4 mph N/A   Scattered Clouds
11:15 PM -25.6 °F -50.2 °F -34.6 °F 63% 30.27 in 10.0 mi NW 12.7 mph 17.3 mph N/A   Scattered Clouds
11:35 PM -25.6 °F -48.0 °F -34.6 °F 63% 30.27 in 10.0 mi WNW 10.4 mph - N/A   Clear
11:52 PM -25.6 °F -48.0 °F -34.6 °F 63% 30.27 in 10.0 mi WNW 10.4 mph 17.3 mph N/A   Clear